Location: Eastchurch
(51.4000°N, 0.8667°E)
Time: 21:05:43
(UTC+00:00)

Cosmos 909 Rocket - Pass Details

Date: 19 January 2026
Orbit: 992 x 2087 km, 65.9° (Epoch: 16 February)

Event Time Altitude Azimuth Distance (km) Brightness Sun altitude
Rises 18:50:59 0° 205° (SSW) 4,359 7.8 -22.4°
Reaches altitude 10° 18:54:03 10° 203° (SSW) 3,244 7.0 -22.9°
Maximum altitude 19:01:27 65° 124° (ESE) 1,200 4.2 -24.0°
Enters shadow 19:03:16 47° 66° (ENE) 1,379 4.3 -24.3°
